Hourly Weather Kozly

Today, 29 October, Thursday

Time Temperature Precipitation Wind Pressure Humidity
00:00 +9°C° 0 mm 3 mps 747 mmHg 80%
01:00 +9°C° 0 mm 3 mps 747 mmHg 83%
02:00 +9°C° 0 mm 3 mps 747 mmHg 84%
03:00 +9°C° 0 mm 3 mps 746 mmHg 85%
04:00 +8°C° 0 mm 3 mps 746 mmHg 86%
05:00 +8°C° 0 mm 3 mps 746 mmHg 86%
06:00 +8°C° 0 mm 3 mps 746 mmHg 86%
07:00 +7°C° 0 mm 4 mps 746 mmHg 86%
08:00 +8°C° 0 mm 4 mps 746 mmHg 82%
09:00 +9°C° 0 mm 5 mps 746 mmHg 78%
10:00 +10°C° 0 mm 5 mps 746 mmHg 74%
11:00 +10°C° 0.1 mm 5 mps 746 mmHg 73%
12:00 +12°C° 0.1 mm 5 mps 746 mmHg 71%
13:00 +12°C° 0.1 mm 5 mps 746 mmHg 70%
14:00 +12°C° 0 mm 5 mps 746 mmHg 69%
15:00 +10°C° 0 mm 5 mps 746 mmHg 68%
16:00 +10°C° 0 mm 5 mps 747 mmHg 68%
17:00 +9°C° 0 mm 5 mps 747 mmHg 70%
18:00 +8°C° 0 mm 5 mps 748 mmHg 72%
19:00 +7°C° 0 mm 4 mps 749 mmHg 74%
20:00 +7°C° 0 mm 4 mps 749 mmHg 75%
21:00 +7°C° 0 mm 5 mps 749 mmHg 76%
22:00 +6°C° 0 mm 5 mps 750 mmHg 78%
23:00 +6°C° 0 mm 5 mps 750 mmHg 79%

Tomorrow, 30 October, Friday

Time Temperature Precipitation Wind Pressure Humidity
00:00 +6°C° 0 mm 5 mps 750 mmHg 81%
01:00 +5°C° 0 mm 4 mps 750 mmHg 83%
02:00 +5°C° 0 mm 4 mps 750 mmHg 84%
03:00 +5°C° 0 mm 4 mps 750 mmHg 85%
04:00 +5°C° 0 mm 4 mps 750 mmHg 85%
05:00 +5°C° 0 mm 3 mps 750 mmHg 84%
06:00 +5°C° 0 mm 3 mps 750 mmHg 83%
07:00 +5°C° 0 mm 3 mps 750 mmHg 82%
08:00 +5°C° 0.3 mm 3 mps 750 mmHg 85%
09:00 +7°C° 0.3 mm 3 mps 750 mmHg 87%
10:00 +7°C° 0.3 mm 3 mps 750 mmHg 89%
11:00 +6°C° 1 mm 4 mps 749 mmHg 91%
12:00 +7°C° 1 mm 4 mps 749 mmHg 92%
13:00 +7°C° 1 mm 4 mps 748 mmHg 94%
14:00 +8°C° 1.4 mm 4 mps 748 mmHg 95%
15:00 +8°C° 1.4 mm 4 mps 748 mmHg 95%
16:00 +9°C° 1.4 mm 5 mps 748 mmHg 96%
17:00 +10°C° 0.8 mm 5 mps 748 mmHg 96%
18:00 +10°C° 0.8 mm 6 mps 748 mmHg 95%
19:00 +10°C° 0.8 mm 6 mps 748 mmHg 95%
20:00 +10°C° 0.8 mm 6 mps 748 mmHg 94%
21:00 +11°C° 0.8 mm 6 mps 748 mmHg 94%
22:00 +11°C° 0.8 mm 6 mps 749 mmHg 94%
23:00 +11°C° 1.1 mm 6 mps 749 mmHg 95%

Day after tomorrow, 31 October, Saturday

Time Temperature Precipitation Wind Pressure Humidity
00:00 +12°C° 1.1 mm 5 mps 749 mmHg 95%
01:00 +10°C° 1.1 mm 5 mps 749 mmHg 95%
02:00 +11°C° 0.9 mm 4 mps 749 mmHg 96%
03:00 +11°C° 0.9 mm 3 mps 750 mmHg 96%
04:00 +12°C° 0.9 mm 2 mps 750 mmHg 96%
05:00 +10°C° 0.7 mm 2 mps 751 mmHg 96%
06:00 +10°C° 0.7 mm 2 mps 751 mmHg 96%
07:00 +10°C° 0.7 mm 2 mps 752 mmHg 96%
08:00 +10°C° 0 mm 2 mps 752 mmHg 92%
09:00 +12°C° 0 mm 2 mps 752 mmHg 89%
10:00 +12°C° 0 mm 2 mps 753 mmHg 86%
11:00 +13°C° 0 mm 1 mps 753 mmHg 82%
12:00 +13°C° 0 mm 1 mps 753 mmHg 78%
13:00 +14°C° 0 mm 1 mps 753 mmHg 75%
14:00 +13°C° 0 mm 1 mps 753 mmHg 76%
15:00 +13°C° 0 mm 1 mps 753 mmHg 77%
16:00 +12°C° 0 mm 1 mps 753 mmHg 78%
17:00 +11°C° 0 mm 1 mps 753 mmHg 79%
18:00 +9°C° 0 mm 2 mps 754 mmHg 80%
19:00 +9°C° 0 mm 2 mps 754 mmHg 81%
20:00 +8°C° 0 mm 2 mps 754 mmHg 81%
21:00 +8°C° 0 mm 2 mps 754 mmHg 82%
22:00 +7°C° 0 mm 2 mps 754 mmHg 82%
23:00 +7°C° 0 mm 3 mps 754 mmHg 83%

1 November, Sunday

Time Temperature Precipitation Wind Pressure Humidity
00:00 +7°C° 0 mm 3 mps 754 mmHg 84%
01:00 +7°C° 0 mm 3 mps 754 mmHg 86%
02:00 +7°C° 0 mm 3 mps 754 mmHg 87%
03:00 +5°C° 0 mm 3 mps 754 mmHg 89%
04:00 +5°C° 0 mm 3 mps 753 mmHg 90%
05:00 +5°C° 0 mm 3 mps 753 mmHg 91%
06:00 +5°C° 0 mm 3 mps 753 mmHg 91%
07:00 +5°C° 0 mm 4 mps 753 mmHg 92%
08:00 +6°C° 0 mm 4 mps 753 mmHg 85%
09:00 +7°C° 0 mm 5 mps 753 mmHg 77%
10:00 +9°C° 0 mm 5 mps 753 mmHg 70%
11:00 +9°C° 0 mm 5 mps 753 mmHg 66%
12:00 +10°C° 0 mm 6 mps 752 mmHg 62%
13:00 +11°C° 0 mm 6 mps 752 mmHg 58%
14:00 +10°C° 0 mm 5 mps 752 mmHg 63%
15:00 +10°C° 0 mm 5 mps 751 mmHg 67%
16:00 +10°C° 0 mm 4 mps 751 mmHg 72%
17:00 +10°C° 0 mm 4 mps 751 mmHg 76%
18:00 +8°C° 0 mm 4 mps 751 mmHg 79%
19:00 +8°C° 0 mm 4 mps 751 mmHg 83%
20:00 +8°C° 0 mm 4 mps 751 mmHg 85%
21:00 +8°C° 0 mm 4 mps 751 mmHg 87%
22:00 +7°C° 0 mm 4 mps 750 mmHg 89%
23:00 +7°C° 0 mm 4 mps 750 mmHg 90%

2 November, Monday

Time Temperature Precipitation Wind Pressure Humidity
00:00 +8°C° 0 mm 3 mps 750 mmHg 91%
01:00 +7°C° 0 mm 3 mps 750 mmHg 91%
02:00 +7°C° 0 mm 3 mps 750 mmHg 91%
03:00 +7°C° 0 mm 3 mps 750 mmHg 91%
04:00 +7°C° 0 mm 3 mps 750 mmHg 91%
05:00 +8°C° 0 mm 3 mps 750 mmHg 88%
06:00 +7°C° 0 mm 4 mps 750 mmHg 86%
07:00 +7°C° 0 mm 4 mps 749 mmHg 84%
08:00 +8°C° 0 mm 4 mps 749 mmHg 80%
09:00 +10°C° 0 mm 4 mps 749 mmHg 77%
10:00 +11°C° 0 mm 4 mps 749 mmHg 74%
11:00 +11°C° 0 mm 4 mps 749 mmHg 73%
12:00 +12°C° 0 mm 4 mps 749 mmHg 73%
13:00 +12°C° 0 mm 4 mps 749 mmHg 73%
14:00 +12°C° 0 mm 4 mps 749 mmHg 74%
15:00 +12°C° 0 mm 3 mps 749 mmHg 76%
16:00 +12°C° 0 mm 3 mps 748 mmHg 78%
17:00 +12°C° 0 mm 3 mps 749 mmHg 79%
18:00 +11°C° 0 mm 3 mps 749 mmHg 80%
19:00 +11°C° 0 mm 3 mps 749 mmHg 81%
20:00 +11°C° 0.1 mm 3 mps 749 mmHg 82%
21:00 +11°C° 0.1 mm 3 mps 749 mmHg 83%
22:00 +11°C° 0.1 mm 3 mps 749 mmHg 85%
23:00 +11°C° 0 mm 3 mps 749 mmHg 85%

3 November, Tuesday

Time Temperature Precipitation Wind Pressure Humidity
00:00 +11°C° 0 mm 3 mps 749 mmHg 86%
01:00 +11°C° 0 mm 3 mps 749 mmHg 86%
02:00 +11°C° 0 mm 3 mps 749 mmHg 87%
03:00 +11°C° 0 mm 3 mps 749 mmHg 87%
04:00 +11°C° 0 mm 3 mps 749 mmHg 88%
05:00 +12°C° 0 mm 2 mps 749 mmHg 89%
06:00 +12°C° 0 mm 2 mps 749 mmHg 90%
07:00 +10°C° 0 mm 2 mps 749 mmHg 91%
08:00 +12°C° 0.2 mm 2 mps 750 mmHg 91%
09:00 +12°C° 0.2 mm 2 mps 750 mmHg 91%
10:00 +11°C° 0.2 mm 3 mps 750 mmHg 92%
11:00 +12°C° 0.5 mm 2 mps 750 mmHg 92%
12:00 +12°C° 0.5 mm 2 mps 750 mmHg 92%
13:00 +12°C° 0.5 mm 1 mps 750 mmHg 92%
14:00 +12°C° 0.9 mm 2 mps 750 mmHg 91%
15:00 +10°C° 0.9 mm 2 mps 750 mmHg 90%
16:00 +10°C° 0.9 mm 2 mps 750 mmHg 89%
17:00 +10°C° 0.3 mm 2 mps 751 mmHg 86%
18:00 +10°C° 0.3 mm 2 mps 751 mmHg 84%
19:00 +10°C° 0.3 mm 2 mps 751 mmHg 82%
20:00 +10°C° 0 mm 3 mps 751 mmHg 82%
21:00 +10°C° 0 mm 3 mps 752 mmHg 82%
22:00 +10°C° 0 mm 3 mps 752 mmHg 82%
23:00 +9°C° 0 mm 3 mps 752 mmHg 83%
Show more